Flag for Spain

Past Weather in 43°33'33.9"N, 5°55'02.6"W, Spain — Yesterday and Last 2 Weeks

Currently: 64 °F. Passing clouds. (Weather station: Asturias / Aviles, Spain). See more current weather

Past Weather in 43°33'33.9"N, 5°55'02.6"W — Graph

°F

43°33'33.9"N, 5°55'02.6"W Temperature Yesterday

Maximum temperature yesterday: 72 °F (at 5:00 pm)
Minimum temperature yesterday: 63 °F (at 12:00 am)
Average temperature yesterday: 65 °F

High & Low Weather Summary for the Past Weeks

 TemperatureHumidityPressure
High77 °F (Jun 16, 4:00 pm)100% (Jun 12, 4:00 am)30.24 "Hg (Jun 12, 4:00 am)
Low50 °F (Jun 13, 6:30 am)46% (Jun 15, 12:30 pm)29.80 "Hg (Jun 17, 6:30 am)
Average61 °F85%30.06 "Hg
* Reported Jun 9 10:30 pm — Jun 24 10:30 pm, 43°33'33.9"N, 5°55'02.6"W. Weather by CustomWeather, © 2024

Note: Actual official high and low records may vary slightly from our data, if they occured in-between our weather recording intervals... More about our weather records

43°33'33.9"N, 5°55'02.6"W Weather History for the Previous 24 Hours

Scroll right to see more
 ConditionsComfort  
Time TempWeatherWind HumidityBarometerVisibility
10:30 pm
Mon, Jun 24
64 °FPassing clouds.9 mph94%29.92 "HgN/A
10:00 pm64 °FPartly sunny.8 mph94%29.92 "HgN/A
9:00 pm66 °FPassing clouds.7 mph88%29.92 "HgN/A
8:30 pm68 °FPassing clouds.9 mph83%29.92 "HgN/A
8:00 pm68 °FPassing clouds.9 mph83%29.92 "HgN/A
7:00 pm70 °FPassing clouds.12 mph78%29.92 "HgN/A
6:30 pm70 °FPassing clouds.12 mph73%29.92 "HgN/A
6:00 pm72 °FScattered clouds.9 mph73%29.95 "HgN/A
5:30 pm70 °FScattered clouds.9 mph83%29.95 "HgN/A
5:00 pm72 °FScattered clouds.8 mph78%29.95 "HgN/A
4:30 pm70 °FScattered clouds.9 mph83%29.95 "HgN/A
4:00 pm70 °FScattered clouds.9 mph78%29.95 "HgN/A
3:00 pm70 °FBroken clouds.9 mph83%29.98 "HgN/A
2:30 pm70 °FBroken clouds.8 mph83%29.98 "HgN/A
2:00 pm70 °FBroken clouds.9 mph78%30.01 "HgN/A
1:00 pm68 °FBroken clouds.8 mph83%30.01 "HgN/A
12:30 pm66 °FPartly sunny.8 mph88%30.01 "HgN/A
12:00 pm66 °FPartly sunny.8 mph88%30.01 "HgN/A
11:30 am64 °FPartly sunny.7 mph94%30.01 "HgN/A
11:00 am64 °FPartly sunny.7 mph94%30.01 "HgN/A
10:30 am63 °FPartly sunny.6 mph100%30.04 "HgN/A
10:00 am63 °FDrizzle. Partly sunny.7 mph100%30.04 "Hg4 mi
9:00 am63 °FPartly sunny.7 mph100%30.04 "HgN/A
8:30 am63 °FLow clouds.7 mph100%30.04 "Hg6 mi
8:00 am63 °FLow clouds.6 mph100%30.04 "Hg6 mi
7:30 am63 °FLow clouds.5 mph100%30.04 "Hg5 mi
7:00 am63 °FPartly sunny.5 mph100%30.04 "Hg5 mi
6:30 am63 °FPassing clouds.5 mph94%30.04 "HgN/A
6:00 am63 °FPassing clouds.5 mph100%30.04 "HgN/A
5:30 am63 °FMostly cloudy.5 mph94%30.04 "HgN/A
5:00 am63 °FMostly cloudy.5 mph94%30.07 "HgN/A
4:30 am63 °FOvercast.2 mph94%30.07 "Hg4 mi
4:00 am63 °FFog.1 mph100%30.07 "Hg2 mi
3:30 am63 °FFog.2 mph100%30.07 "Hg1 mi
3:00 am63 °FFog.2 mph94%30.09 "Hg1 mi
2:30 am63 °FMild.3 mph94%30.09 "Hg1 mi
2:00 am63 °FFog.3 mph94%30.09 "Hg1 mi
1:30 am63 °FLow clouds.3 mph94%30.12 "Hg1 mi
1:00 am63 °FFog.2 mph94%30.12 "Hg1 mi
Weather by CustomWeather, © 2024

See weather overview